Location: Sevilla
(37.3933°N, 5.9839°W)
Time: 12:00:58
(UTC+02:00)

S-56A Canister/Altair - Pass Details

Date: 25 June 2024
Orbit: 638 x 2488 km, 38.9° (Epoch: 14 July)

Event Time Altitude Azimuth Distance (km) Brightness Sun altitude
Rises 06:28:06 0° 283° (WNW) 5,831 11.6 -6.9°
Reaches altitude 10° 06:33:16 10° 268° (W) 5,008 11.2 -6.1°
Maximum altitude 06:42:27 20° 229° (SW) 4,346 10.7 -4.6°
Drops below altitude 10° 06:51:45 10° 189° (S) 5,020 11.3 -3.0°
Sets 06:57:03 0° 174° (S) 5,845 11.8 -2.1°
